�������l�o���
Date,Time,MP-1(��Sv/h),MP-2(��Sv/h),MP-3(��Sv/h),MP-4(��Sv/h),MP-5(��Sv/h),MP-6(��Sv/h),MP-7(��Sv/h),MP-8(��Sv/h),����,����(m/s),���J
2017/08/03,00:00,0.964,1.508,0.999,1.800,1.243,0.518,0.947,0.878,�k��,4.7,��
2017/08/03,00:10,0.962,1.508,1.001,1.803,1.241,0.518,0.947,0.876,�k��,4.1,��
2017/08/03,00:20,0.964,1.507,0.998,1.799,1.242,0.518,0.947,0.876,�k��,4.1,��
2017/08/03,00:30,0.962,1.509,1.001,1.800,1.244,0.519,0.947,0.876,�k��,4.4,��
2017/08/03,00:40,0.963,1.510,1.000,1.801,1.241,0.518,0.948,0.877,�k��,3.5,��
2017/08/03,00:50,0.961,1.507,1.001,1.797,1.242,0.518,0.947,0.878,�k��,3.2,��
2017/08/03,01:00,0.961,1.508,0.999,1.799,1.243,0.517,0.948,0.875,�k��,3.9,��
2017/08/03,01:10,0.964,1.511,1.001,1.800,1.246,0.517,0.948,0.877,�k��,3.2,��
2017/08/03,01:20,0.963,1.508,1.002,1.800,1.243,0.516,0.949,0.877,�k��,3.0,��
2017/08/03,01:30,0.962,1.509,1.001,1.799,1.243,0.518,0.949,0.877,�k��,2.8,��
2017/08/03,01:40,0.962,1.509,0.999,1.799,1.243,0.518,0.948,0.876,�k�k��,3.7,��
2017/08/03,01:50,0.963,1.509,1.001,1.799,1.244,0.519,0.949,0.876,�k�k��,3.3,��
2017/08/03,02:00,0.962,1.510,1.003,1.801,1.243,0.519,0.951,0.877,�k�k��,3.2,��
2017/08/03,02:10,0.963,1.511,1.001,1.801,1.243,0.517,0.948,0.876,�k��,2.8,��
2017/08/03,02:20,0.963,1.508,1.001,1.799,1.247,0.518,0.949,0.876,�k�k��,2.9,��
2017/08/03,02:30,0.964,1.507,0.999,1.800,1.244,0.518,0.947,0.876,�k�k��,2.5,��
2017/08/03,02:40,0.963,1.507,1.000,1.797,1.245,0.518,0.947,0.876,�k�k��,2.8,��
2017/08/03,02:50,0.963,1.504,1.000,1.797,1.245,0.518,0.950,0.876,�k�k��,2.9,��
2017/08/03,03:00,0.962,1.503,0.998,1.799,1.243,0.518,0.947,0.876,�k�k��,3.2,��
2017/08/03,03:10,0.963,1.509,0.997,1.797,1.245,0.518,0.949,0.877,�k�k��,2.8,��
2017/08/03,03:20,0.962,1.508,0.999,1.798,1.245,0.519,0.950,0.874,�k�k��,3.2,��
2017/08/03,03:30,0.961,1.508,0.999,1.802,1.245,0.518,0.949,0.876,�k�k��,2.9,��
2017/08/03,03:40,0.964,1.508,0.998,1.800,1.242,0.517,0.949,0.875,�k�k��,3.0,��
2017/08/03,03:50,0.963,1.508,0.999,1.799,1.244,0.519,0.948,0.876,�k�k��,3.0,��
2017/08/03,04:00,0.962,1.508,0.999,1.799,1.244,0.518,0.951,0.878,�k�k��,2.8,��
2017/08/03,04:10,0.962,1.509,1.000,1.804,1.244,0.519,0.948,0.877,�k�k��,2.9,��
2017/08/03,04:20,0.964,1.508,1.000,1.799,1.244,0.517,0.949,0.877,�k�k��,2.8,��
2017/08/03,04:30,0.962,1.510,1.002,1.801,1.242,0.516,0.948,0.876,�k�k��,3.1,��
2017/08/03,04:40,0.964,1.510,1.003,1.801,1.242,0.518,0.948,0.878,�k�k��,3.2,��
2017/08/03,04:50,0.963,1.509,1.000,1.799,1.245,0.519,0.948,0.877,�k�k��,2.6,��
2017/08/03,05:00,0.963,1.509,0.999,1.800,1.244,0.517,0.948,0.877,�k�k��,3.4,��
2017/08/03,05:10,0.963,1.512,0.999,1.799,1.245,0.516,0.948,0.878,�k�k��,3.4,��
2017/08/03,05:20,0.964,1.508,1.001,1.802,1.242,0.517,0.948,0.875,�k�k��,3.3,��
2017/08/03,05:30,0.963,1.509,1.002,1.799,1.244,0.516,0.948,0.877,�k�k��,3.5,��
2017/08/03,05:40,0.963,1.508,1.000,1.803,1.245,0.517,0.948,0.877,�k�k��,3.3,��
2017/08/03,05:50,0.961,1.510,1.000,1.798,1.245,0.516,0.946,0.877,�k�k��,3.0,��
2017/08/03,06:00,0.960,1.508,1.000,1.802,1.244,0.516,0.947,0.875,�k�k��,3.4,��
2017/08/03,06:10,0.962,1.511,0.999,1.801,1.245,0.516,0.946,0.879,�k��,3.8,��
2017/08/03,06:20,0.961,1.506,0.999,1.803,1.244,0.518,0.949,0.876,�k��,3.6,��
2017/08/03,06:30,0.962,1.505,0.996,1.800,1.242,0.517,0.949,0.876,�k��,3.2,��
2017/08/03,06:40,0.964,1.508,0.997,1.802,1.244,0.516,0.948,0.878,�k�k��,3.4,��
2017/08/03,06:50,0.962,1.510,0.999,1.803,1.242,0.519,0.948,0.877,�k�k��,2.8,��
2017/08/03,07:00,0.963,1.511,0.997,1.803,1.242,0.518,0.952,0.876,�k��,2.9,��
2017/08/03,07:10,0.963,1.510,0.997,1.805,1.244,0.517,0.950,0.877,�k�k��,2.6,��
2017/08/03,07:20,0.963,1.508,0.996,1.805,1.247,0.517,0.950,0.878,�k,2.2,��
2017/08/03,07:30,0.963,1.509,0.993,1.802,1.241,0.516,0.950,0.878,�k�k��,1.7,��
2017/08/03,07:40,0.965,1.510,0.995,1.803,1.245,0.515,0.949,0.879,�k�k��,2.6,��
2017/08/03,07:50,0.962,1.505,0.998,1.804,1.244,0.516,0.950,0.877,�k�k��,2.3,��
2017/08/03,08:00,0.963,1.504,0.998,1.803,1.244,0.516,0.949,0.875,�k��,2.0,��
2017/08/03,08:10,0.963,1.502,0.998,1.804,1.245,0.517,0.949,0.874,�k��,2.6,��
2017/08/03,08:20,0.963,1.505,0.995,1.802,1.242,0.514,0.947,0.873,�k��,2.3,��
2017/08/03,08:30,0.963,1.507,0.997,1.803,1.246,0.517,0.948,0.875,���k��,1.7,��
2017/08/03,08:40,0.964,1.507,0.996,1.803,1.244,0.515,0.949,0.874,�k��,2.8,��
2017/08/03,08:50,0.963,1.505,1.001,1.801,1.244,0.517,0.950,0.876,�k�k��,2.9,��
2017/08/03,09:00,0.965,1.506,1.002,1.805,1.246,0.517,0.948,0.876,�k��,3.2,��
2017/08/03,09:10,0.963,1.506,0.997,1.803,1.246,0.517,0.949,0.874,�k��,2.6,��
2017/08/03,09:20,0.964,1.507,0.999,1.801,1.245,0.516,0.948,0.876,�k��,2.3,��
2017/08/03,09:30,0.966,1.507,0.997,1.804,1.245,0.516,0.947,0.874,���k��,2.5,��
2017/08/03,09:40,0.963,1.506,0.996,1.801,1.246,0.518,0.949,0.877,�k��,1.9,��
2017/08/03,09:50,0.964,1.506,0.998,1.806,1.247,0.517,0.948,0.876,���k��,2.3,��
2017/08/03,10:00,0.966,1.505,0.998,1.803,1.247,0.516,0.950,0.875,�k��,2.6,��
2017/08/03,10:10,0.965,1.509,0.996,1.802,1.247,0.517,0.950,0.877,���k��,2.5,��
2017/08/03,10:20,0.965,1.507,0.999,1.802,1.246,0.517,0.948,0.876,���k��,2.5,��
2017/08/03,10:30,0.966,1.507,0.999,1.804,1.245,0.518,0.951,0.875,���k��,2.8,��
2017/08/03,10:40,0.967,1.507,0.998,1.802,1.247,0.518,0.949,0.876,���쓌,3.2,��
2017/08/03,10:50,0.967,1.508,1.000,1.804,1.246,0.517,0.949,0.875,��,3.9,��
2017/08/03,11:00,0.967,1.508,1.001,1.804,1.247,0.518,0.951,0.874,��,4.1,��
2017/08/03,11:10,0.965,1.511,0.998,1.802,1.247,0.517,0.949,0.876,���쓌,4.2,��
2017/08/03,11:20,0.968,1.510,1.000,1.804,1.248,0.517,0.950,0.877,���쓌,4.4,��
2017/08/03,11:30,0.967,1.508,0.998,1.804,1.246,0.518,0.949,0.875,���쓌,4.3,��
2017/08/03,11:40,0.968,1.511,1.001,1.802,1.247,0.519,0.950,0.874,���쓌,4.8,��
2017/08/03,11:50,0.966,1.509,1.001,1.802,1.247,0.518,0.951,0.876,���쓌,4.2,��
2017/08/03,12:00,0.967,1.511,0.998,1.804,1.246,0.517,0.949,0.876,��,3.9,�L
2017/08/03,12:10,0.969,1.514,1.001,1.805,1.246,0.517,0.950,0.875,���쓌,3.5,�L
2017/08/03,12:20,0.967,1.513,1.000,1.804,1.250,0.516,0.949,0.876,��,3.9,�L
2017/08/03,12:30,0.967,1.511,1.000,1.803,1.248,0.517,0.949,0.875,���쓌,3.4,��
2017/08/03,12:40,0.967,1.513,0.999,1.806,1.247,0.517,0.950,0.874,���쓌,3.3,��
2017/08/03,12:50,0.968,1.514,1.001,1.808,1.249,0.518,0.950,0.876,���쓌,3.9,��
2017/08/03,13:00,0.969,1.513,1.001,1.806,1.248,0.517,0.949,0.876,��,3.6,��
2017/08/03,13:10,0.968,1.512,0.999,1.805,1.247,0.518,0.949,0.876,���쓌,3.3,��
2017/08/03,13:20,0.968,1.515,0.999,1.810,1.249,0.515,0.950,0.876,���쓌,2.9,��
2017/08/03,13:30,0.967,1.511,1.003,1.808,1.248,0.518,0.951,0.877,��,3.1,��
2017/08/03,13:40,0.966,1.514,1.003,1.807,1.249,0.518,0.949,0.875,���쓌,3.2,��
2017/08/03,13:50,0.966,1.512,1.003,1.808,1.248,0.517,0.950,0.875,�쓌,2.8,��
2017/08/03,14:00,0.966,1.513,1.006,1.807,1.248,0.518,0.951,0.875,�쓌,3.0,��
2017/08/03,14:10,0.967,1.512,1.003,1.810,1.249,0.517,0.952,0.876,���쓌,2.8,��
2017/08/03,14:20,0.969,1.513,1.007,1.807,1.249,0.517,0.951,0.874,���쓌,2.9,��
2017/08/03,14:30,0.966,1.518,1.006,1.807,1.247,0.519,0.950,0.877,���쓌,2.9,��
2017/08/03,14:40,0.968,1.514,1.005,1.807,1.249,0.517,0.949,0.877,���쓌,3.1,��
2017/08/03,14:50,0.969,1.515,1.005,1.808,1.249,0.518,0.950,0.876,���쓌,3.3,��
2017/08/03,15:00,0.968,1.514,1.004,1.808,1.250,0.518,0.952,0.877,���쓌,3.6,��
2017/08/03,15:10,0.966,1.516,1.004,1.808,1.248,0.516,0.950,0.877,���쓌,3.2,��
2017/08/03,15:20,0.968,1.517,1.008,1.810,1.248,0.519,0.950,0.877,���쓌,2.6,��
2017/08/03,15:30,0.967,1.518,1.006,1.807,1.251,0.518,0.950,0.877,���쓌,2.2,��
2017/08/03,15:40,0.965,1.514,1.007,1.807,1.251,0.518,0.950,0.875,���쓌,2.0,��
2017/08/03,15:50,0.966,1.516,1.008,1.809,1.249,0.518,0.949,0.876,��,1.7,��
2017/08/03,16:00,0.968,1.518,1.004,1.807,1.249,0.517,0.950,0.877,�쓌,1.4,��
2017/08/03,16:10,0.967,1.517,1.006,1.809,1.250,0.517,0.950,0.877,�쓌,1.9,��
2017/08/03,16:20,0.966,1.517,1.006,1.808,1.251,0.517,0.950,0.876,���쓌,1.9,��
2017/08/03,16:30,0.969,1.517,1.006,1.808,1.252,0.517,0.948,0.877,��,1.4,��
2017/08/03,16:40,0.967,1.514,1.009,1.808,1.250,0.520,0.950,0.876,���쓌,1.9,��
2017/08/03,16:50,0.969,1.516,1.007,1.807,1.252,0.518,0.949,0.877,��,1.7,��
2017/08/03,17:00,0.968,1.517,1.007,1.811,1.250,0.518,0.950,0.878,���쓌,2.3,��
2017/08/03,17:10,0.967,1.519,1.008,1.810,1.251,0.518,0.951,0.877,��,2.3,��
2017/08/03,17:20,0.969,1.516,1.008,1.808,1.250,0.520,0.950,0.875,���쓌,2.8,��
2017/08/03,17:30,0.968,1.517,1.008,1.806,1.251,0.520,0.951,0.876,��,2.9,��
2017/08/03,17:40,0.965,1.519,1.008,1.808,1.251,0.518,0.952,0.877,��,3.1,��
2017/08/03,17:50,0.967,1.518,1.005,1.809,1.252,0.519,0.950,0.877,���쓌,3.2,��
2017/08/03,18:00,0.966,1.518,1.008,1.809,1.253,0.521,0.951,0.878,���쓌,3.2,��
2017/08/03,18:10,0.966,1.519,1.008,1.809,1.250,0.520,0.952,0.877,���쓌,3.3,��
2017/08/03,18:20,0.968,1.517,1.008,1.809,1.252,0.519,0.950,0.878,���쓌,2.0,��
2017/08/03,18:30,0.968,1.517,1.007,1.809,1.252,0.519,0.951,0.879,���쓌,3.1,��
2017/08/03,18:40,0.968,1.519,1.007,1.809,1.250,0.518,0.950,0.878,���쓌,2.6,��
2017/08/03,18:50,0.967,1.518,1.006,1.810,1.251,0.519,0.950,0.877,��,2.2,��
2017/08/03,19:00,0.969,1.519,1.007,1.810,1.253,0.518,0.949,0.881,��,2.2,��
2017/08/03,19:10,0.968,1.520,1.008,1.812,1.250,0.518,0.950,0.876,��,1.4,��
2017/08/03,19:20,0.969,1.518,1.008,1.808,1.253,0.520,0.951,0.880,���쓌,0.9,��
2017/08/03,19:30,0.969,1.519,1.006,1.810,1.251,0.518,0.951,0.879,���쓌,0.6,��
2017/08/03,19:40,0.972,1.520,1.007,1.810,1.248,0.520,0.951,0.878,��,1.2,��
2017/08/03,19:50,0.969,1.516,1.007,1.807,1.251,0.519,0.952,0.878,���k��,0.6,��
2017/08/03,20:00,0.967,1.517,1.009,1.810,1.255,0.518,0.952,0.877,��쐼,0.9,��
2017/08/03,20:10,0.967,1.522,1.007,1.810,1.252,0.519,0.951,0.878,-,CALM,��
2017/08/03,20:20,0.969,1.521,1.007,1.809,1.251,0.519,0.950,0.878,��쓌,0.6,��
2017/08/03,20:30,0.968,1.518,1.007,1.811,1.253,0.517,0.951,0.879,-,CALM,��
2017/08/03,20:40,0.969,1.519,1.009,1.811,1.253,0.519,0.950,0.877,-,CALM,��
2017/08/03,20:50,0.971,1.521,1.007,1.808,1.254,0.519,0.951,0.879,-,CALM,��
2017/08/03,21:00,0.968,1.517,1.007,1.810,1.252,0.519,0.951,0.879,-,CALM,��
2017/08/03,21:10,0.972,1.520,1.007,1.809,1.256,0.519,0.949,0.879,���쐼,0.6,��
2017/08/03,21:20,0.970,1.521,1.008,1.808,1.255,0.519,0.950,0.878,��쐼,0.9,��
2017/08/03,21:30,0.972,1.520,1.007,1.812,1.253,0.519,0.950,0.879,�쐼,0.9,��
2017/08/03,21:40,0.968,1.521,1.007,1.810,1.254,0.519,0.951,0.877,��쐼,1.2,��
2017/08/03,21:50,0.970,1.520,1.006,1.808,1.254,0.519,0.951,0.880,��,0.9,��
2017/08/03,22:00,0.971,1.522,1.008,1.809,1.253,0.519,0.951,0.878,��쐼,0.8,��
2017/08/03,22:10,0.969,1.520,1.007,1.809,1.254,0.519,0.951,0.878,-,CALM,��
2017/08/03,22:20,0.968,1.520,1.008,1.810,1.254,0.519,0.953,0.876,�쐼,0.8,��
2017/08/03,22:30,0.969,1.521,1.010,1.809,1.253,0.519,0.951,0.877,��쐼,1.2,��
2017/08/03,22:40,0.970,1.520,1.008,1.812,1.254,0.520,0.951,0.878,��,0.9,��
2017/08/03,22:50,0.968,1.522,1.009,1.809,1.252,0.520,0.951,0.878,�쓌,0.8,��
2017/08/03,23:00,0.971,1.519,1.007,1.814,1.253,0.520,0.950,0.878,��,0.6,��
2017/08/03,23:10,0.972,1.522,1.009,1.811,1.251,0.521,0.952,0.880,��,0.8,��
2017/08/03,23:20,0.968,1.519,1.008,1.812,1.254,0.520,0.952,0.879,�쓌,0.6,��
2017/08/03,23:30,0.971,1.522,1.007,1.808,1.251,0.518,0.950,0.878,-,CALM,��
2017/08/03,23:40,0.973,1.519,1.009,1.809,1.255,0.519,0.952,0.878,��,0.6,��
2017/08/03,23:50,0.970,1.521,1.009,1.807,1.252,0.520,0.951,0.880,-,CALM,��
